TimeCST,TemperatureF,Dew PointF,Humidity,Sea Level PressureIn,VisibilityMPH,Wind Direction,Wind SpeedMPH,Gust SpeedMPH,PrecipitationIn,Events,Conditions,WindDirDegrees,DateUTC
12:14 AM,-0.4,-5.8,78,30.19,10.0,NNW,15.0,21.9,N/A,,Scattered Clouds,330,2013-12-29 06:14:00
12:35 AM,-4.0,-9.4,78,30.20,10.0,NW,13.8,19.6,N/A,,Mostly Cloudy,320,2013-12-29 06:35:00
12:53 AM,-5.8,-11.2,77,30.20,10.0,NW,15.0,-,N/A,,Scattered Clouds,320,2013-12-29 06:53:00
1:15 AM,-7.6,-11.2,84,30.22,10.0,NW,10.4,-,N/A,,Clear,310,2013-12-29 07:15:00
1:35 AM,-7.6,-13.0,77,30.23,10.0,NW,15.0,-,N/A,,Clear,310,2013-12-29 07:35:00
1:52 AM,-9.4,-14.8,77,30.22,10.0,NW,11.5,-,N/A,,Clear,320,2013-12-29 07:52:00
2:15 AM,-9.4,-14.8,77,30.24,10.0,NW,13.8,-,N/A,,Clear,310,2013-12-29 08:15:00
2:35 AM,-11.2,-16.6,77,30.26,10.0,NW,13.8,-,N/A,,Clear,310,2013-12-29 08:35:00
2:53 AM,-11.2,-16.6,77,30.27,10.0,NW,12.7,-,N/A,,Clear,310,2013-12-29 08:53:00
3:15 AM,-13.0,-18.4,77,30.28,10.0,NW,12.7,-,N/A,,Scattered Clouds,310,2013-12-29 09:15:00
3:35 AM,-14.8,-18.4,84,30.29,10.0,NW,15.0,-,N/A,,Scattered Clouds,310,2013-12-29 09:35:00
3:53 AM,-14.8,-20.2,77,30.29,10.0,NW,13.8,-,N/A,,Clear,310,2013-12-29 09:53:00
4:15 AM,-14.8,-20.2,77,30.29,10.0,NW,15.0,-,N/A,,Clear,320,2013-12-29 10:15:00
4:35 AM,-16.6,-20.2,84,30.30,10.0,NW,13.8,19.6,N/A,,Scattered Clouds,320,2013-12-29 10:35:00
4:53 AM,-16.6,-22.0,76,30.28,10.0,NNW,6.9,13.8,N/A,,Scattered Clouds,340,2013-12-29 10:53:00
5:15 AM,-16.6,-23.8,70,30.28,10.0,NNW,8.1,-,N/A,,Clear,330,2013-12-29 11:15:00
5:35 AM,-18.4,-23.8,76,30.30,10.0,NW,9.2,-,N/A,,Scattered Clouds,310,2013-12-29 11:35:00
5:53 AM,-16.6,-23.8,70,30.31,10.0,NW,9.2,-,N/A,,Overcast,310,2013-12-29 11:53:00
6:15 AM,-16.6,-23.8,70,30.31,10.0,NW,10.4,-,N/A,,Overcast,310,2013-12-29 12:15:00
6:35 AM,-16.6,-23.8,70,30.31,10.0,NW,10.4,-,N/A,,Overcast,310,2013-12-29 12:35:00
6:52 AM,-16.6,-23.8,70,30.31,10.0,NW,11.5,-,N/A,,Overcast,320,2013-12-29 12:52:00
7:15 AM,-16.6,-23.8,70,30.32,10.0,NW,11.5,-,N/A,,Overcast,320,2013-12-29 13:15:00
7:35 AM,-16.6,-23.8,70,30.32,10.0,NW,10.4,-,N/A,,Overcast,310,2013-12-29 13:35:00
7:53 AM,-16.6,-23.8,70,30.32,10.0,NW,12.7,-,N/A,,Overcast,320,2013-12-29 13:53:00
8:14 AM,-16.6,-23.8,70,30.32,10.0,NW,12.7,-,N/A,,Overcast,320,2013-12-29 14:14:00
8:35 AM,-16.6,-23.8,70,30.33,10.0,NW,9.2,-,N/A,,Overcast,310,2013-12-29 14:35:00
8:52 AM,-16.6,-23.8,70,30.33,10.0,NW,9.2,-,N/A,,Overcast,310,2013-12-29 14:52:00
9:15 AM,-16.6,-23.8,70,30.33,10.0,NW,9.2,-,N/A,,Mostly Cloudy,310,2013-12-29 15:15:00
9:35 AM,-16.6,-23.8,70,30.33,10.0,NW,9.2,-,N/A,,Clear,310,2013-12-29 15:35:00
9:52 AM,-16.6,-23.8,70,30.34,10.0,NW,10.4,-,N/A,,Clear,310,2013-12-29 15:52:00
10:14 AM,-16.6,-23.8,70,30.34,10.0,NW,10.4,-,N/A,,Clear,310,2013-12-29 16:14:00
10:35 AM,-14.8,-23.8,64,30.34,10.0,NW,10.4,-,N/A,,Clear,310,2013-12-29 16:35:00
10:53 AM,-14.8,-23.8,64,30.34,10.0,NW,12.7,-,N/A,,Clear,320,2013-12-29 16:53:00
11:15 AM,-14.8,-23.8,64,30.33,10.0,NW,9.2,-,N/A,,Clear,320,2013-12-29 17:15:00
11:35 AM,-13.0,-23.8,59,30.32,10.0,NW,9.2,-,N/A,,Clear,320,2013-12-29 17:35:00
11:53 AM,-13.0,-22.0,64,30.31,10.0,NW,9.2,-,N/A,,Clear,320,2013-12-29 17:53:00
12:15 PM,-11.2,-22.0,59,30.30,10.0,NNW,6.9,-,N/A,,Clear,330,2013-12-29 18:15:00
12:34 PM,-11.2,-20.2,64,30.29,10.0,WNW,8.1,-,N/A,,Clear,300,2013-12-29 18:34:00
12:53 PM,-11.2,-22.0,59,30.28,10.0,NW,8.1,-,N/A,,Clear,310,2013-12-29 18:53:00
1:15 PM,-11.2,-20.2,64,30.28,10.0,NW,10.4,-,N/A,,Clear,320,2013-12-29 19:15:00
1:34 PM,-11.2,-20.2,64,30.27,10.0,West,8.1,-,N/A,,Clear,270,2013-12-29 19:34:00
1:53 PM,-9.4,-20.2,59,30.26,10.0,WNW,8.1,-,N/A,,Clear,300,2013-12-29 19:53:00
2:15 PM,-9.4,-20.2,59,30.26,10.0,West,5.8,-,N/A,,Clear,280,2013-12-29 20:15:00
2:35 PM,-9.4,-20.2,59,30.26,10.0,West,10.4,-,N/A,,Clear,280,2013-12-29 20:35:00
2:53 PM,-9.4,-20.2,59,30.25,10.0,West,10.4,17.3,N/A,,Clear,280,2013-12-29 20:53:00
3:15 PM,-9.4,-20.2,59,30.24,10.0,West,5.8,-,N/A,,Clear,280,2013-12-29 21:15:00
3:35 PM,-9.4,-20.2,59,30.23,10.0,WNW,3.5,-,N/A,,Clear,290,2013-12-29 21:35:00
3:53 PM,-9.4,-20.2,59,30.23,10.0,WNW,6.9,-,N/A,,Clear,300,2013-12-29 21:53:00
4:15 PM,-11.2,-20.2,64,30.22,10.0,WNW,4.6,-,N/A,,Clear,290,2013-12-29 22:15:00
4:35 PM,-11.2,-20.2,64,30.22,10.0,West,5.8,-,N/A,,Clear,270,2013-12-29 22:35:00
4:52 PM,-13.0,-20.2,70,30.22,10.0,West,6.9,-,N/A,,Clear,280,2013-12-29 22:52:00
5:14 PM,-13.0,-20.2,70,30.21,10.0,West,4.6,-,N/A,,Clear,280,2013-12-29 23:14:00
5:34 PM,-14.8,-22.0,70,30.21,10.0,West,4.6,-,N/A,,Clear,260,2013-12-29 23:34:00
5:53 PM,-14.8,-22.0,70,30.20,10.0,West,5.8,-,N/A,,Clear,260,2013-12-29 23:53:00
6:15 PM,-16.6,-23.8,70,30.20,10.0,WSW,3.5,-,N/A,,Clear,240,2013-12-30 00:15:00
6:35 PM,-16.6,-23.8,70,30.20,10.0,WSW,4.6,-,N/A,,Clear,250,2013-12-30 00:35:00
6:53 PM,-18.4,-23.8,76,30.19,10.0,WSW,4.6,-,N/A,,Clear,240,2013-12-30 00:53:00
7:15 PM,-18.4,-23.8,76,30.19,10.0,SW,4.6,-,N/A,,Clear,230,2013-12-30 01:15:00
7:34 PM,-18.4,-23.8,76,30.19,10.0,SW,5.8,-,N/A,,Clear,230,2013-12-30 01:34:00
7:53 PM,-18.4,-25.6,70,30.19,10.0,WSW,5.8,-,N/A,,Clear,250,2013-12-30 01:53:00
8:15 PM,-20.2,-25.6,76,30.18,10.0,West,4.6,-,N/A,,Clear,260,2013-12-30 02:15:00
8:35 PM,-20.2,-25.6,76,30.18,10.0,Calm,Calm,-,N/A,,Clear,0,2013-12-30 02:35:00
8:53 PM,-20.2,-25.6,76,30.18,10.0,WSW,4.6,-,N/A,,Clear,240,2013-12-30 02:53:00
9:15 PM,-20.2,-25.6,76,30.17,10.0,WSW,4.6,-,N/A,,Clear,240,2013-12-30 03:15:00
9:34 PM,-18.4,-23.8,76,30.17,10.0,WSW,3.5,-,N/A,,Clear,250,2013-12-30 03:34:00
9:53 PM,-20.2,-25.6,76,30.17,10.0,Calm,Calm,-,N/A,,Clear,0,2013-12-30 03:53:00
10:15 PM,-20.2,-25.6,76,30.17,10.0,Calm,Calm,-,N/A,,Clear,0,2013-12-30 04:15:00
10:35 PM,-20.2,-25.6,76,30.16,10.0,Calm,Calm,-,N/A,,Clear,0,2013-12-30 04:35:00
10:52 PM,-20.2,-25.6,76,30.16,10.0,Calm,Calm,-,N/A,,Clear,0,2013-12-30 04:52:00
11:14 PM,-20.2,-25.6,76,30.16,10.0,Calm,Calm,-,N/A,,Clear,0,2013-12-30 05:14:00
11:34 PM,-20.2,-25.6,76,30.15,10.0,Calm,Calm,-,N/A,,Clear,0,2013-12-30 05:34:00
11:53 PM,-22.0,-25.6,83,30.15,10.0,Calm,Calm,-,N/A,,Clear,0,2013-12-30 05:53:00